Terminal Aerodrome Forecast
Issued by NWS

Home | Current Version | Previous Version | Text Only | Print | Product List | Glossary On
Versions: 1 2 3 4 5 6 7 8 9 10 11 12 13 14
000
FTUS44 KLUB 042320
TAFCDS
TAF
KCDS 042320Z 0500/0524 15015G25KT P6SM BKN040 BKN250
     FM050100 15013KT 5SM -TSRA BKN025CB OVC060=

USA.gov is the U.S. government's official web portal to all federal, state and local government web resources and services.